Vernal, UT

11:15 PM MST on December 08, 2016 (GMT -0700)
Vernal

Weather History for KVEL - April, 2013

Change the Weather History Date:

Friday, April 26, 2013

  Actual Average Record
Temperature  
Mean Temperature 51 °F 50 °F  
Max Temperature 68 °F 63 °F 84 °F (1946)
Min Temperature 33 °F 37 °F 20 °F (1948)
Degree Days  
Heating Degree Days 14 15  
Month to date heating degree days 579 491  
Since 1 July heating degree days 7309 6822  
Cooling Degree Days 0 0  
Month to date cooling degree days 0 0  
Year to date cooling degree days 0 0  
Growing Degree Days 1 (Base 50)    
Moisture  
Dew Point 16 °F    
Average Humidity 28    
Maximum Humidity 44    
Minimum Humidity 11    
Precipitation  
Precipitation 0.00 in 0.03 in 0.81 in (1976)
Month to date precipitation 0.80 0.69  
Year to date precipitation 2.52 2.39  
Sea Level Pressure  
Sea Level Pressure 30.11 in    
Wind  
Wind Speed 4 mph (WSW)    
Max Wind Speed 13 mph    
Max Gust Speed 18 mph    
Visibility 10 miles    
Events      
T = Trace of Precipitation, MM = Missing Value Source: NWS Daily Summary

Daily Weather History Graph

Daily Weather History Graph

Search for Another Location

Airport or City:

Trip Planner

Search our weather history database for the weather conditions in past years. The results will help you decide how hot, cold, wet, or windy it might be!

Date:

Astronomy

Apr. 26, 2013 Rise Set
Actual Time 6:23 AM MDT 8:08 PM MDT
Civil Twilight 5:54 AM MDT 8:38 PM MDT
Nautical Twilight 5:18 AM MDT 9:13 PM MDT
Astronomical Twilight 4:41 AM MDT 9:51 PM MDT
Moon 9:35 PM MDT (4/26) 6:53 AM MDT (4/26)
Length of Visible Light 14h 43m
Length of Day
13h 45m
Full, 99% of the Moon is Illuminated
Apr 26
Full
May 2
Last Quarter
May 9
New
May 17
First Quarter
May 24
Full

Hourly Weather History & Observations

Time (MDT) Temp. Windchill Dew Point Humidity Pressure Visibility Wind Dir Wind Speed Gust Speed Precip Events Conditions
1:53 AM 45.0 °F 40.6 °F 16.0 °F 31% 30.00 in 10.0 mi SW 8.1 mph - N/A   Clear
2:53 AM 39.0 °F 34.0 °F 18.0 °F 43% 30.03 in 10.0 mi West 6.9 mph - N/A   Clear
3:53 AM 39.0 °F 34.8 °F 17.1 °F 41% 30.04 in 10.0 mi West 5.8 mph - N/A   Clear
4:53 AM 36.0 °F - 16.0 °F 44% 30.06 in 10.0 mi Calm Calm - N/A   Clear
5:53 AM 37.9 °F 32.7 °F 15.1 °F 39% 30.08 in 10.0 mi West 6.9 mph - N/A   Clear
6:53 AM 36.0 °F 31.1 °F 16.0 °F 44% 30.12 in 10.0 mi West 5.8 mph - N/A   Clear
7:53 AM 44.1 °F - 21.0 °F 40% 30.13 in 10.0 mi Calm Calm - N/A   Clear
8:53 AM 46.9 °F - 17.1 °F 30% 30.17 in 10.0 mi Calm Calm - N/A   Clear
9:53 AM 54.0 °F - 17.1 °F 23% 30.16 in 10.0 mi Calm Calm - N/A   Clear
10:53 AM 57.9 °F - 14.0 °F 18% 30.16 in 10.0 mi SE 4.6 mph - N/A   Clear
11:53 AM 61.0 °F - 12.9 °F 15% 30.14 in 10.0 mi Variable 6.9 mph - N/A   Clear
12:53 PM 63.0 °F - 14.0 °F 15% 30.13 in 10.0 mi South 11.5 mph 16.1 mph N/A   Clear
1:53 PM 64.0 °F - 12.0 °F 13% 30.12 in 10.0 mi South 9.2 mph - N/A   Clear
2:53 PM 66.0 °F - 10.9 °F 12% 30.13 in 10.0 mi Calm Calm - N/A   Clear
3:53 PM 66.0 °F - 10.9 °F 12% 30.12 in 10.0 mi SSW 4.6 mph - N/A   Clear
4:53 PM 66.0 °F - 10.0 °F 11% 30.12 in 10.0 mi Calm Calm - N/A   Clear
5:53 PM 66.0 °F - 14.0 °F 13% 30.11 in 10.0 mi SSE 4.6 mph - N/A   Clear
6:53 PM 64.9 °F - 16.0 °F 15% 30.11 in 10.0 mi South 4.6 mph - N/A   Clear
7:53 PM 62.1 °F - 15.1 °F 16% 30.10 in 10.0 mi SSE 3.5 mph - N/A   Clear
8:53 PM 54.0 °F - 19.9 °F 26% 30.13 in 10.0 mi WNW 8.1 mph - N/A   Clear
9:53 PM 51.1 °F - 19.0 °F 28% 30.14 in 10.0 mi NW 5.8 mph - N/A   Clear
10:53 PM 48.9 °F - 19.0 °F 31% 30.15 in 10.0 mi NW 4.6 mph - N/A   Clear
11:53 PM 46.0 °F 43.9 °F 19.0 °F 34% 30.16 in 10.0 mi NW 4.6 mph - N/A   Clear